Satellite-Ground Cal/Val Region Overpasses Predictions

Prediction of Satellite NPP Overpassing Cal/Val Region: PacNW

Region Location: (Latitude: 10.00, Longitude: 139.50) to (Latitude: 22.70, Longitude: 165.60).

Table of predicted overpasses for the next 14.0 days since TLE Epoch: 12/30/2016
Interval Starting Time Starting Location Ending Time Ending Location
1 12/30/2016 15:30:46 ( 22.67, 152.24) 12/30/2016 15:34:21 ( 10.05, 149.24)
2 12/31/2016 02:39:50 ( 10.04, 159.77) 12/31/2016 02:43:25 ( 22.66, 156.77)
3 12/31/2016 15:11:43 ( 22.69, 157.00) 12/31/2016 15:15:19 ( 10.01, 153.99)
4 01/01/2017 02:20:48 ( 10.02, 164.53) 01/01/2017 02:24:23 ( 22.64, 161.53)
5 01/01/2017 14:52:42 ( 22.65, 161.75) 01/01/2017 14:56:17 ( 10.03, 158.75)
6 01/02/2017 03:43:15 ( 10.01, 143.92) 01/02/2017 03:46:51 ( 22.69, 140.90)
7 01/02/2017 14:34:43 ( 18.91, 165.59) 01/02/2017 14:37:14 ( 10.04, 163.51)
8 01/02/2017 16:15:09 ( 22.65, 141.14) 01/02/2017 16:17:03 ( 15.97, 139.51)
9 01/03/2017 03:24:14 ( 10.06, 148.67) 01/03/2017 03:27:49 ( 22.68, 145.66)
10 01/03/2017 15:56:07 ( 22.67, 145.90) 01/03/2017 15:59:42 ( 10.05, 142.90)
11 01/04/2017 03:05:11 ( 10.04, 153.43) 01/04/2017 03:08:46 ( 22.66, 150.43)
12 01/04/2017 15:37:04 ( 22.69, 150.66) 01/04/2017 15:40:40 ( 10.01, 147.65)
13 01/05/2017 02:46:09 ( 10.03, 158.19) 01/05/2017 02:49:44 ( 22.65, 155.19)
14 01/05/2017 15:18:03 ( 22.64, 155.41) 01/05/2017 15:21:38 ( 10.02, 152.41)
15 01/06/2017 02:27:07 ( 10.01, 162.95) 01/06/2017 02:30:43 ( 22.69, 159.94)
16 01/06/2017 14:59:00 ( 22.66, 160.17) 01/06/2017 15:02:35 ( 10.04, 157.17)
17 01/07/2017 02:10:38 ( 19.04, 165.59) 01/07/2017 02:11:40 ( 22.68, 164.70)
18 01/07/2017 03:49:34 ( 10.00, 142.34) 01/07/2017 03:52:57 ( 21.92, 139.51)
19 01/07/2017 14:39:58 ( 22.67, 164.93) 01/07/2017 14:43:33 ( 10.05, 161.93)
20 01/07/2017 16:21:28 ( 22.66, 139.56) 01/07/2017 16:21:31 ( 22.49, 139.51)
21 01/08/2017 03:30:33 ( 10.05, 147.08) 01/08/2017 03:34:08 ( 22.67, 144.08)
22 01/08/2017 16:02:25 ( 22.68, 144.32) 01/08/2017 16:06:00 ( 10.06, 141.32)
23
